Current Version              Previous Version:    01  02  03  04  05  06  07  08  09  10  11  12  13  14  15  16  17  18  19  20  21  22  23  24  25  26  27  28  29  30  
   31  32  33  34  35  36  37  38  39  40  41  42  43  44  45  46  47  48  49  50  51  52  53  54  55  56  57  58  59  60  

[Printable]
608
ASUS44 KEWX 241210
RWRTX
SOUTH TEXAS REGIONAL WEATHER ROUNDUP
NATIONAL WEATHER SERVICE AUSTIN/SAN ANTONIO TX
600 AM CST MON NOV 24 2014

NOTE: "FAIR" INDICATED FEW OR NO CLOUDS BELOW 12,000 FEET WITH NO
SIGNIFICANT WEATHER AND/OR OBSTRUCTIONS TO VISIBILITY.

* - THESE STATIONS ARE NOT NWS OR FAA STATIONS...AND ARE NOT SUBJECT
    TO NWS AND FAA QUALITY CONTROL.

TXZ171-172-183>190-241300-
TEXAS HILL COUNTRY AND EDWARDS PLATEAU

CITY           SKY/WX    TMP DP  RH WIND       PRES   REMARKS
JUNCTION       CLEAR     39  34  82 W5        30.02R WCI  36
6HR MIN TEMP:  39; 6HR MAX TEMP:  50;

*LLANO         CLEAR     39  36  87 CALM      30.04R
BURNET         CLEAR     45  35  68 NW9       30.01R WCI  40
6HR MIN TEMP:  45; 6HR MAX TEMP:  51;

*HORSESHOE BAY CLEAR     45  37  73 NW6       30.00R WCI  42
6HR MIN TEMP:  45; 6HR MAX TEMP:  54;

*KERRVILLE     CLEAR     40  36  85 NW3       30.01R
6HR MIN TEMP:  40; 6HR MAX TEMP:  54;

*FREDERICKSBRG CLEAR     41  35  80 NW7       30.00R WCI  36
6HR MIN TEMP:  41; 6HR MAX TEMP:  50;

*ROCKSPRINGS   CLEAR     41  34  75 MISG      30.03R
*BOERNE STAGE  CLEAR     46  32  57 N10G16    29.99R WCI  41
*CASTROVILLE   CLEAR     46  37  71 NW6       30.01R WCI  43
HONDO          CLEAR     43  35  73 N9        30.00R WCI  38
6HR MIN TEMP:  41; 6HR MAX TEMP:  57;

*UVALDE        CLEAR     48  37  66 NW9       30.02R WCI  43
6HR MIN TEMP:  48; 6HR MAX TEMP:  63;

DEL RIO        CLEAR     47  36  65 NW7       30.05R WCI  44
6HR MIN TEMP:  47; 6HR MAX TEMP:  63;

LAUGHLIN AFB   CLEAR     45  38  78 N8        30.05R WCI  40
6HR MIN TEMP:  45; 6HR MAX TEMP:  60;

CARRIZO SPRGS  CLEAR     50  39  66 NW7       30.01R WCI  47
$$

TXZ173-191>194-202-209-217>225-228-241300-
CENTRAL AND SOUTH CENTRAL TEXAS

CITY           SKY/WX    TMP DP  RH WIND       PRES   REMARKS
GEORGETOWN     CLEAR     45  36  70 NW8       29.98R WCI  40
6HR MIN TEMP:  45; 6HR MAX TEMP:  54;

AUSTIN/BERGSTM CLEAR     50  36  58 NW12      29.97R WCI  46
6HR MIN TEMP:  47; 6HR MAX TEMP:  58;

AUSTIN/MABRY   CLEAR     48  36  63 NW8       29.98R WCI  44
6HR MIN TEMP:  48; 6HR MAX TEMP:  57;

*AUSTIN/EXEC   CLOUDY    46  36  66 NW13      29.98R WCI  41
*LAGO VISTA    CLEAR     47  35  63 NW9       29.98R WCI  43
6HR MIN TEMP:  47; 6HR MAX TEMP:  53;

SAN MARCOS     CLEAR     48  36  61 N15       29.97R WCI  42
6HR MIN TEMP:  48; 6HR MAX TEMP:  57;

NEW BRAUNFELS  CLEAR     51  36  56 N13       29.96R
6HR MIN TEMP:  50; 6HR MAX TEMP:  61;

RANDOLPH AFB   CLEAR     49  35  58 N5        29.97R WCI  47
6HR MIN TEMP:  49; 6HR MAX TEMP:  61;

PT SAN ANTONIO CLEAR     49  37  63 N6        29.96R WCI  46
6HR MIN TEMP:  48; 6HR MAX TEMP:  62;

SAN ANTONIO    CLEAR     51  35  54 N8        29.97R
6HR MIN TEMP:  51; 6HR MAX TEMP:  62;

STINSON FIELD  CLEAR     50  35  56 N6        29.97R WCI  48
6HR MIN TEMP:  50; 6HR MAX TEMP:  63;

*PLEASANTON    CLEAR     47  38  73 CALM      29.99R
6HR MIN TEMP:  47; 6HR MAX TEMP:  64;

*LA GRANGE     CLEAR     50  39  67 CALM      29.94R
6HR MIN TEMP:  50; 6HR MAX TEMP:  63;

*GIDDINGS      CLEAR     47  37  70 N6        29.99R WCI  44
6HR MIN TEMP:  47; 6HR MAX TEMP:  58;

*GONZALES      CLEAR     47  39  75 N7        29.96R WCI  43
6HR MIN TEMP:  46; 6HR MAX TEMP:  63;

$$

TXZ163>164-176>182-195>201-210>213-226-227-235-241300-
SOUTHEAST TEXAS

CITY           SKY/WX    TMP DP  RH WIND       PRES   REMARKS
COLLEGE STN    CLEAR     47  38  71 NW8       29.95R WCI  43
6HR MIN TEMP:  47; 6HR MAX TEMP:  57;

*BRYAN         CLEAR     44  38  79 NW5       29.96R WCI  42
6HR MIN TEMP:  44; 6HR MAX TEMP:  56;

*CALDWELL      CLEAR     45  37  76 NW6       29.99R WCI  41
*CROCKETT      CLEAR     46  41  81 N3        29.97R
*BRENHAM       CLEAR     48  41  75 N5        29.96R WCI  46
6HR MIN TEMP:  48; 6HR MAX TEMP:  60;

HUNTSVILLE     CLEAR     47  38  71 NW6       29.94R WCI  44
6HR MIN TEMP:  47; 6HR MAX TEMP:  59;

CONROE         CLEAR     49  38  65 N9        29.93R WCI  45
6HR MIN TEMP:  49; 6HR MAX TEMP:  60;

HOUSTON BUSH   CLEAR     51  40  65 N13G21    29.91R
6HR MIN TEMP:  51; 6HR MAX TEMP:  65;

HOUSTON HOBBY  CLEAR     52  42  69 N14       29.90R
6HR MIN TEMP:  52; 6HR MAX TEMP:  64;

*HOUSTON SW AP CLEAR     49  41  74 N10G16    29.92R WCI  44
6HR MIN TEMP:  49; 6HR MAX TEMP:  60;

PEARLAND       CLEAR     54  42  64 VRB6      29.92R
6HR MIN TEMP:  54; 6HR MAX TEMP:  68;

HOUSTON HOOKS  CLEAR     50  38  63 N10G17    29.92R WCI  46
6HR MIN TEMP:  50; 6HR MAX TEMP:  66;

ELLINGTON FLD  CLEAR     54  41  62 N17       29.90R
SUGAR LAND     CLEAR     52  40  63 N13G22    29.91R
6HR MIN TEMP:  52; 6HR MAX TEMP:  64;

*HOUSTON EXEC  MOCLDY    48 N/A N/A N10       29.94R WCI  44
*CLEVELAND MUN CLEAR     50  43  75 N9G16     29.92  WCI  46
6HR MIN TEMP:  50; 6HR MAX TEMP:  62;

*WHARTON       CLEAR     50  41  71 N12       29.94R WCI  46
6HR MIN TEMP:  50; 6HR MAX TEMP:  62;

*COLUMBUS      FAIR      49  38  66 N7        29.94R WCI  47
6HR MIN TEMP:  49; 6HR MAX TEMP:  61;

$$

TXZ214>216-236>238-241300-
THE UPPER TEXAS COAST

CITY           SKY/WX    TMP DP  RH WIND       PRES   REMARKS
*ORANGE        CLEAR     52  45  76 NW7       29.90R
6HR MIN TEMP:  52; 6HR MAX TEMP:  65;

PORT ARTHUR    CLEAR     52  44  74 N17G23    29.88R
6HR MIN TEMP:  52; 6HR MAX TEMP:  66; 6HR PCP: TRACE;

GALVESTON      CLEAR     56  47  71 N20G29    29.89R
6HR MIN TEMP:  56; 6HR MAX TEMP:  68;

ANGLETON       CLEAR     51  43  74 N9        29.90R
6HR MIN TEMP:  51; 6HR MAX TEMP:  64;

*BAY CITY        N/A     54  44  69 N14G23    29.90R
PALACIOS       CLEAR     52  43  71 N15G24    29.92R
6HR MIN TEMP:  52; 6HR MAX TEMP:  67;

$$

TXZ229>234-239>247-241300-
TEXAS COASTAL BEND AND RIO GRANDE PLAINS

CITY           SKY/WX    TMP DP  RH WIND       PRES   REMARKS
VICTORIA       CLEAR     53  39  59 N12       29.95R
6HR MIN TEMP:  53; 6HR MAX TEMP:  65;

*BEEVILLE      CLEAR     53  39  58 N13       29.96R
6HR MIN TEMP:  53; 6HR MAX TEMP:  65;

ROCKPORT       CLEAR     55  43  63 N17G25    29.93R
6HR MIN TEMP:  55; 6HR MAX TEMP:  65;

*PORT ARANSAS  CLEAR     56  46  68 N21G28    29.92R
6HR MIN TEMP:  56; 6HR MAX TEMP:  65;

*PORT LAVACA   CLEAR     52  43  71 N16       29.94R
6HR MIN TEMP:  52; 6HR MAX TEMP:  66;

*INGLESIDE     CLEAR     56  43  61 N18G28    29.92R
CORPUS CHRISTI CLEAR     56  43  61 N21       29.92R
6HR MIN TEMP:  56; 6HR MAX TEMP:  64;

CORPUS NAS     CLEAR     57  46  66 N24       29.92R
6HR MIN TEMP:  57; 6HR MAX TEMP:  65;

*ROBSTOWN      NOT AVBL
ALICE          CLEAR     56  42  59 N12       29.94R
6HR MIN TEMP:  56; 6HR MAX TEMP:  63;

KINGSVILLE NAS CLEAR     57  46  66 N16       29.94R
6HR MIN TEMP:  56; 6HR MAX TEMP:  63;

COTULLA        CLEAR     52  39  61 N6        30.01R
6HR MIN TEMP:  52; 6HR MAX TEMP:  66;

*FAITH RANCH   CLEAR     52  37  58 N10       30.01R
LAREDO         CLEAR     56  40  55 N15       30.01R
6HR MIN TEMP:  56; 6HR MAX TEMP:  66;

$$

TXZ248>255-241300-
DEEP SOUTH TEXAS

CITY           SKY/WX    TMP DP  RH WIND       PRES   REMARKS
BROWNSVILLE    FOG       69  68  96 W5        29.83R VSB 1/4
6HR MIN TEMP:  68; 6HR MAX TEMP:  69;

PORT ISABEL    CLOUDY    65  64  97 N16G23    29.87R FOG
6HR MIN TEMP:  65; 6HR MAX TEMP:  69;

*SOUTH PADRE     N/A     68  68 100 N17       29.86R VSB<1/4